| time (UTC) | temp F | wind direction | speed MPH | gust MPH | rain 1hr in | rain 24hr in | rain mn in | humidity % | barometer mb |
| 20260508102404 | 44 | 269 | 0.0 | 0.0 | 0.00 | 0.02 | 0.02 | 86 | 1010.4 |
| 20260508101904 | 44 | 269 | 0.0 | 0.0 | 0.00 | 0.02 | 0.02 | 85 | 1010.4 |
| 20260508101405 | 44 | 269 | 0.0 | 0.0 | 0.00 | 0.02 | 0.02 | 85 | 1010.4 |
| 20260508100904 | 44 | 273 | 0.0 | 0.0 | 0.00 | 0.02 | 0.02 | 85 | 1010.3 |
| 20260508100404 | 44 | 274 | 0.0 | 0.0 | 0.00 | 0.02 | 0.02 | 85 | 1010.3 |
| 20260508095905 | 44 | 271 | 0.0 | 0.0 | 0.00 | 0.02 | 0.02 | 86 | 1010.3 |
| 20260508095405 | 44 | 273 | 0.0 | 0.0 | 0.00 | 0.02 | 0.02 | 86 | 1010.3 |
| 20260508094405 | 44 | 282 | 0.0 | 0.0 | 0.00 | 0.02 | 0.02 | 85 | 1010.3 |
| 20260508093905 | 45 | 279 | 0.0 | 0.0 | 0.00 | 0.02 | 0.02 | 85 | 1010.3 |
| 20260508092904 | 45 | 290 | 0.0 | 0.0 | 0.01 | 0.02 | 0.02 | 85 | 1010.3 |
| 20260508092405 | 45 | 289 | 0.0 | 0.0 | 0.01 | 0.02 | 0.02 | 85 | 1010.2 |
| 20260508091904 | 45 | 294 | 0.0 | 0.0 | 0.01 | 0.02 | 0.02 | 85 | 1010.2 |
| 20260508091405 | 45 | 294 | 0.0 | 0.0 | 0.01 | 0.02 | 0.02 | 85 | 1010.2 |
| 20260508090906 | 45 | 294 | 0.0 | 0.0 | 0.01 | 0.02 | 0.02 | 85 | 1010.1 |
| 20260508090405 | 45 | 301 | 0.0 | 0.0 | 0.01 | 0.02 | 0.02 | 85 | 1010.0 |
| 20260508085906 | 45 | 305 | 0.0 | 0.0 | 0.01 | 0.03 | 0.02 | 84 | 1009.8 |
| 20260508085405 | 46 | 305 | 0.0 | 0.0 | 0.01 | 0.03 | 0.02 | 84 | 1009.7 |
| 20260508084405 | 46 | 304 | 0.0 | 0.0 | 0.01 | 0.03 | 0.02 | 82 | 1009.8 |
| 20260508083403 | 46 | 315 | 0.0 | 3.0 | 0.00 | 0.03 | 0.01 | 81 | 1010.2 |
| 20260508082904 | 46 | 276 | 2.0 | 9.0 | 0.00 | 0.03 | 0.01 | 80 | 1010.2 |
| 20260508082404 | 46 | 298 | 2.0 | 5.0 | 0.00 | 0.04 | 0.01 | 79 | 1010.1 |
| 20260508081904 | 46 | 309 | 3.0 | 8.0 | 0.00 | 0.04 | 0.01 | 79 | 1010.1 |
| 20260508081403 | 46 | 312 | 1.0 | 8.0 | 0.00 | 0.04 | 0.01 | 78 | 1010.1 |
| 20260508080904 | 46 | 313 | 0.0 | 7.0 | 0.00 | 0.05 | 0.01 | 78 | 1010.1 |
| 20260508080405 | 46 | 296 | 2.0 | 6.0 | 0.00 | 0.05 | 0.01 | 78 | 1009.9 |
| 20260508075904 | 46 | 315 | 1.0 | 3.0 | 0.00 | 0.05 | 0.01 | 78 | 1009.7 |
| 20260508075404 | 46 | 329 | 0.0 | 5.0 | 0.00 | 0.06 | 0.01 | 77 | 1009.7 |
| 20260508074904 | 46 | 15 | 1.0 | 3.0 | 0.00 | 0.06 | 0.01 | 77 | 1009.7 |
| 20260508074403 | 46 | 331 | 1.0 | 9.0 | 0.00 | 0.07 | 0.01 | 76 | 1009.7 |
| 20260508073903 | 47 | 5 | 0.0 | 3.0 | 0.00 | 0.08 | 0.01 | 76 | 1009.5 |
| 20260508073404 | 47 | 338 | 1.0 | 3.0 | 0.00 | 0.11 | 0.01 | 75 | 1009.6 |
| 20260508072904 | 47 | 4 | 0.0 | 12.0 | 0.00 | 0.11 | 0.01 | 75 | 1009.6 |
| 20260508072405 | 47 | 9 | 0.0 | 12.0 | 0.00 | 0.12 | 0.01 | 75 | 1009.7 |
| 20260508071904 | 47 | 317 | 2.0 | 7.0 | 0.00 | 0.12 | 0.01 | 74 | 1009.8 |
| 20260508071404 | 47 | 83 | 0.0 | 6.0 | 0.00 | 0.12 | 0.01 | 73 | 1009.7 |
| 20260508070904 | 47 | 343 | 0.0 | 1.0 | 0.00 | 0.12 | 0.01 | 73 | 1009.6 |
| 20260508070403 | 47 | 343 | 0.0 | 5.0 | 0.01 | 0.12 | 0.01 | 72 | 1009.6 |
| 20260508065904 | 48 | 356 | 0.0 | 2.0 | 0.01 | 0.13 | 0.01 | 71 | 1009.6 |
| 20260508065405 | 48 | 34 | 0.0 | 1.0 | 0.01 | 0.13 | 0.01 | 70 | 1009.6 |
| 20260508064904 | 48 | 350 | 1.0 | 5.0 | 0.01 | 0.13 | 0.01 | 70 | 1009.8 |
| 20260508064404 | 48 | 31 | 0.0 | 1.0 | 0.01 | 0.13 | 0.01 | 70 | 1010.0 |
| 20260508063904 | 48 | 311 | 0.0 | 1.0 | 0.01 | 0.13 | 0.01 | 69 | 1010.0 |
| 20260508063404 | 48 | 53 | 0.0 | 1.0 | 0.01 | 0.14 | 0.01 | 69 | 1010.0 |
| 20260508062904 | 48 | 311 | 0.0 | 3.0 | 0.01 | 0.14 | 0.01 | 70 | 1010.1 |
| 20260508062404 | 48 | 326 | 5.0 | 9.0 | 0.01 | 0.14 | 0.01 | 69 | 1010.1 |
| 20260508061904 | 49 | 311 | 5.0 | 12.0 | 0.01 | 0.14 | 0.01 | 68 | 1010.1 |
| 20260508060904 | 50 | 311 | 2.0 | 12.0 | 0.01 | 0.15 | 0.01 | 63 | 1010.1 |
| 20260508060404 | 51 | 31 | 4.0 | 15.0 | 0.00 | 0.14 | 0.00 | 61 | 1009.9 |
| 20260508055905 | 51 | 303 | 2.0 | 10.0 | 0.00 | 0.14 | 0.00 | 58 | 1009.8 |
| 20260508055404 | 50 | 301 | 1.0 | 8.0 | 0.00 | 0.14 | 0.00 | 60 | 1009.6 |
| 20260508054904 | 50 | 314 | 1.0 | 10.0 | 0.00 | 0.15 | 0.00 | 61 | 1009.4 |
| 20260508053404 | 50 | 23 | 0.0 | 0.0 | 0.00 | 0.16 | 0.00 | 59 | 1007.8 |
| 20260508052904 | 51 | 23 | 0.0 | 0.0 | 0.00 | 0.16 | 0.00 | 58 | 1007.7 |
| 20260508051904 | 51 | 25 | 0.0 | 0.0 | 0.00 | 0.16 | 0.00 | 58 | 1007.6 |
| 20260508051404 | 50 | 25 | 0.0 | 0.0 | 0.00 | 0.16 | 0.00 | 59 | 1007.8 |
| 20260508050904 | 50 | 25 | 0.0 | 0.0 | 0.00 | 0.16 | 0.00 | 58 | 1007.8 |
| 20260508050404 | 50 | 26 | 0.0 | 0.0 | 0.00 | 0.16 | 0.00 | 57 | 1007.6 |
| 20260508045904 | 51 | 26 | 0.0 | 0.0 | 0.00 | 0.16 | 0.00 | 56 | 1007.5 |
| 20260508045406 | 51 | 24 | 0.0 | 0.0 | 0.00 | 0.16 | 0.00 | 58 | 1007.7 |
| 20260508044404 | 50 | 313 | 0.0 | 0.0 | 0.00 | 0.16 | 0.00 | 58 | 1007.8 |
| 20260508043904 | 50 | 314 | 0.0 | 0.0 | 0.00 | 0.16 | 0.00 | 58 | 1007.7 |
| 20260508043404 | 50 | 314 | 0.0 | 0.0 | 0.00 | 0.16 | 0.00 | 58 | 1007.7 |
| 20260508042904 | 50 | 314 | 0.0 | 0.0 | 0.00 | 0.16 | 0.00 | 58 | 1007.7 |
| 20260508042404 | 50 | 314 | 0.0 | 0.0 | 0.00 | 0.16 | 0.00 | 58 | 1007.7 |
| 20260508041904 | 50 | 313 | 0.0 | 0.0 | 0.00 | 0.16 | 0.00 | 57 | 1007.6 |
| 20260508041404 | 50 | 313 | 0.0 | 0.0 | 0.00 | 0.16 | 0.00 | 56 | 1007.5 |
| 20260508040904 | 50 | 314 | 0.0 | 0.0 | 0.00 | 0.16 | 0.00 | 55 | 1007.5 |
| 20260508040404 | 50 | 313 | 0.0 | 0.0 | 0.00 | 0.16 | 0.00 | 55 | 1007.4 |
| 20260508035404 | 51 | 314 | 0.0 | 0.0 | 0.00 | 0.16 | 0.16 | 53 | 1007.4 |
| 20260508034905 | 51 | 313 | 0.0 | 0.0 | 0.00 | 0.16 | 0.16 | 55 | 1007.5 |
| 20260508034406 | 51 | 313 | 0.0 | 0.0 | 0.00 | 0.16 | 0.16 | 52 | 1007.5 |
| 20260508033405 | 51 | 313 | 0.0 | 0.0 | 0.00 | 0.16 | 0.16 | 54 | 1007.6 |
| 20260508032404 | 51 | 313 | 0.0 | 0.0 | 0.00 | 0.16 | 0.16 | 53 | 1007.7 |
| 20260508031904 | 51 | 313 | 0.0 | 0.0 | 0.00 | 0.16 | 0.16 | 52 | 1007.6 |
| 20260508031404 | 51 | 314 | 0.0 | 0.0 | 0.00 | 0.16 | 0.16 | 53 | 1007.6 |
| 20260508030904 | 51 | 313 | 0.0 | 0.0 | 0.00 | 0.16 | 0.16 | 52 | 1007.6 |
| 20260508030404 | 51 | 313 | 0.0 | 0.0 | 0.00 | 0.16 | 0.16 | 52 | 1007.6 |
| 20260508025905 | 51 | 313 | 0.0 | 0.0 | 0.00 | 0.16 | 0.16 | 51 | 1007.6 |
| 20260508025405 | 51 | 314 | 0.0 | 0.0 | 0.00 | 0.16 | 0.16 | 51 | 1007.6 |
| 20260508024905 | 51 | 314 | 0.0 | 0.0 | 0.00 | 0.16 | 0.16 | 51 | 1007.7 |
| 20260508024405 | 52 | 313 | 0.0 | 0.0 | 0.00 | 0.16 | 0.16 | 51 | 1007.7 |
| 20260508023905 | 52 | 313 | 0.0 | 0.0 | 0.00 | 0.16 | 0.16 | 49 | 1007.7 |
| 20260508023405 | 52 | 313 | 0.0 | 0.0 | 0.00 | 0.16 | 0.16 | 49 | 1007.7 |
| 20260508022903 | 52 | 314 | 0.0 | 0.0 | 0.00 | 0.16 | 0.16 | 49 | 1007.7 |
| 20260508022404 | 53 | 313 | 0.0 | 0.0 | 0.00 | 0.16 | 0.16 | 47 | 1007.7 |
| 20260508021904 | 53 | 313 | 0.0 | 0.0 | 0.00 | 0.16 | 0.16 | 47 | 1007.7 |
| 20260508021404 | 53 | 313 | 0.0 | 0.0 | 0.00 | 0.16 | 0.16 | 46 | 1007.7 |
| 20260508015903 | 54 | 313 | 0.0 | 0.0 | 0.00 | 0.17 | 0.16 | 45 | 1007.6 |
| 20260508015404 | 55 | 314 | 0.0 | 0.0 | 0.00 | 0.17 | 0.16 | 44 | 1007.5 |
| 20260508014903 | 55 | 313 | 0.0 | 0.0 | 0.00 | 0.18 | 0.16 | 44 | 1007.4 |
| 20260508014403 | 55 | 313 | 0.0 | 0.0 | 0.00 | 0.19 | 0.16 | 44 | 1007.4 |
| 20260508013904 | 55 | 313 | 0.0 | 0.0 | 0.00 | 0.19 | 0.16 | 44 | 1007.5 |
| 20260508013403 | 55 | 312 | 0.0 | 0.0 | 0.00 | 0.19 | 0.16 | 43 | 1007.6 |
| 20260508012404 | 55 | 312 | 0.0 | 0.0 | 0.00 | 0.19 | 0.16 | 44 | 1007.5 |
| 20260508011904 | 54 | 312 | 0.0 | 0.0 | 0.00 | 0.19 | 0.16 | 46 | 1007.4 |
| 20260508010904 | 55 | 312 | 0.0 | 0.0 | 0.00 | 0.19 | 0.16 | 44 | 1007.3 |
| 20260508010404 | 55 | 312 | 0.0 | 0.0 | 0.00 | 0.19 | 0.16 | 43 | 1007.2 |
| 20260508005904 | 55 | 312 | 0.0 | 0.0 | 0.00 | 0.19 | 0.16 | 43 | 1007.2 |
| 20260508005404 | 56 | 312 | 0.0 | 0.0 | 0.00 | 0.19 | 0.16 | 41 | 1007.1 |
| 20260508004905 | 56 | 312 | 0.0 | 0.0 | 0.00 | 0.19 | 0.16 | 40 | 1007.2 |
| 20260508003904 | 56 | 312 | 0.0 | 0.0 | 0.00 | 0.19 | 0.16 | 41 | 1006.9 |
| 20260508003404 | 56 | 312 | 0.0 | 0.0 | 0.00 | 0.19 | 0.16 | 41 | 1006.9 |
| 20260508002906 | 57 | 312 | 0.0 | 0.0 | 0.00 | 0.19 | 0.16 | 39 | 1006.8 |
| 20260508002404 | 57 | 312 | 0.0 | 0.0 | 0.00 | 0.19 | 0.16 | 38 | 1006.7 |
| 20260508001904 | 57 | 312 | 0.0 | 1.0 | 0.00 | 0.19 | 0.16 | 39 | 1006.7 |
| 20260508000905 | 57 | 17 | 0.0 | 0.0 | 0.00 | 0.19 | 0.16 | 38 | 1006.6 |
| 20260508000405 | 58 | 17 | 0.0 | 0.0 | 0.00 | 0.19 | 0.16 | 37 | 1006.5 |
| 20260507235905 | 58 | 17 | 0.0 | 1.0 | 0.00 | 0.19 | 0.16 | 37 | 1006.5 |
| 20260507235404 | 58 | 350 | 0.0 | 0.0 | 0.00 | 0.19 | 0.16 | 38 | 1006.5 |
| 20260507234904 | 58 | 351 | 2.0 | 9.0 | 0.00 | 0.19 | 0.16 | 38 | 1006.5 |
| 20260507234405 | 58 | 325 | 1.0 | 6.0 | 0.00 | 0.19 | 0.16 | 38 | 1006.5 |
| 20260507233904 | 59 | 317 | 0.0 | 1.0 | 0.00 | 0.19 | 0.16 | 36 | 1006.4 |
| 20260507233405 | 59 | 69 | 0.0 | 1.0 | 0.00 | 0.19 | 0.16 | 37 | 1006.3 |
| 20260507232904 | 59 | 269 | 0.0 | 0.0 | 0.00 | 0.19 | 0.16 | 38 | 1006.1 |
| 20260507232405 | 59 | 272 | 0.0 | 1.0 | 0.00 | 0.19 | 0.16 | 36 | 1006.1 |
| 20260507231904 | 60 | 281 | 0.0 | 5.0 | 0.00 | 0.19 | 0.16 | 36 | 1006.2 |
| 20260507231405 | 60 | 315 | 0.0 | 3.0 | 0.00 | 0.19 | 0.16 | 35 | 1006.2 |
| 20260507230904 | 60 | 294 | 2.0 | 8.0 | 0.00 | 0.19 | 0.16 | 36 | 1006.3 |
| 20260507230404 | 60 | 329 | 0.0 | 7.0 | 0.00 | 0.19 | 0.16 | 37 | 1006.2 |
| 20260507225904 | 60 | 32 | 0.0 | 5.0 | 0.00 | 0.19 | 0.16 | 35 | 1006.2 |
| 20260507225405 | 61 | 34 | 1.0 | 6.0 | 0.00 | 0.19 | 0.16 | 35 | 1006.1 |
| 20260507224906 | 61 | 328 | 0.0 | 1.0 | 0.00 | 0.19 | 0.16 | 38 | 1006.1 |
| 20260507224404 | 61 | 320 | 1.0 | 5.0 | 0.00 | 0.19 | 0.16 | 35 | 1006.1 |
| 20260507223905 | 61 | 353 | 3.0 | 12.0 | 0.00 | 0.19 | 0.16 | 35 | 1006.2 |
| 20260507223406 | 62 | 321 | 0.0 | 10.0 | 0.00 | 0.19 | 0.16 | 35 | 1006.2 |
| 20260507222905 | 62 | 352 | 3.0 | 10.0 | 0.00 | 0.19 | 0.16 | 35 | 1006.1 |
| 20260507222404 | 62 | 325 | 1.0 | 6.0 | 0.00 | 0.19 | 0.16 | 34 | 1006.2 |
| 20260507221904 | 62 | 345 | 3.0 | 12.0 | 0.00 | 0.19 | 0.16 | 34 | 1006.2 |
| 20260507221404 | 62 | 317 | 4.0 | 12.0 | 0.00 | 0.19 | 0.16 | 34 | 1006.1 |
| 20260507220905 | 62 | 311 | 2.0 | 8.0 | 0.00 | 0.19 | 0.16 | 34 | 1006.1 |
| 20260507220405 | 62 | 309 | 5.0 | 12.0 | 0.00 | 0.19 | 0.16 | 34 | 1006.2 |
| 20260507215405 | 63 | 315 | 3.0 | 12.0 | 0.00 | 0.19 | 0.16 | 33 | 1006.2 |
| 20260507214906 | 63 | 299 | 3.0 | 12.0 | 0.00 | 0.19 | 0.16 | 35 | 1006.1 |
| 20260507214404 | 62 | 314 | 3.0 | 12.0 | 0.00 | 0.19 | 0.16 | 33 | 1006.1 |
| 20260507213406 | 63 | 306 | 1.0 | 12.0 | 0.00 | 0.19 | 0.16 | 33 | 1006.0 |
| 20260507212905 | 63 | 299 | 2.0 | 12.0 | 0.00 | 0.19 | 0.16 | 34 | 1005.9 |
| 20260507212405 | 63 | 317 | 3.0 | 8.0 | 0.00 | 0.19 | 0.16 | 34 | 1006.0 |
| 20260507211906 | 63 | 324 | 6.0 | 17.0 | 0.00 | 0.19 | 0.16 | 34 | 1005.9 |
| 20260507211404 | 62 | 46 | 2.0 | 12.0 | 0.00 | 0.19 | 0.16 | 37 | 1005.8 |
| 20260507210405 | 63 | 314 | 0.0 | 3.0 | 0.00 | 0.19 | 0.16 | 36 | 1005.9 |
| 20260507205904 | 64 | 23 | 1.0 | 8.0 | 0.00 | 0.19 | 0.16 | 36 | 1005.9 |
| 20260507205405 | 63 | 18 | 2.0 | 16.0 | 0.00 | 0.19 | 0.16 | 34 | 1005.7 |
| 20260507204905 | 63 | 336 | 3.0 | 16.0 | 0.00 | 0.19 | 0.16 | 40 | 1005.8 |
| 20260507204405 | 63 | 344 | 6.0 | 14.0 | 0.00 | 0.19 | 0.16 | 35 | 1005.8 |
| 20260507203905 | 63 | 333 | 6.0 | 15.0 | 0.00 | 0.19 | 0.16 | 37 | 1005.8 |
| 20260507203404 | 62 | 349 | 1.0 | 13.0 | 0.00 | 0.19 | 0.16 | 37 | 1005.9 |
| 20260507202903 | 62 | 351 | 0.0 | 5.0 | 0.00 | 0.19 | 0.16 | 37 | 1005.9 |
| 20260507202404 | 61 | 282 | 5.0 | 12.0 | 0.00 | 0.19 | 0.16 | 37 | 1006.0 |
| 20260507201904 | 62 | 291 | 1.0 | 7.0 | 0.00 | 0.19 | 0.16 | 36 | 1005.9 |
| 20260507201403 | 61 | 253 | 5.0 | 10.0 | 0.00 | 0.19 | 0.16 | 36 | 1005.9 |
| 20260507195904 | 65 | 311 | 5.0 | 12.0 | 0.00 | 0.20 | 0.16 | 35 | 1005.9 |
| 20260507194904 | 64 | 336 | 3.0 | 12.0 | 0.00 | 0.20 | 0.16 | 34 | 1006.0 |
| 20260507194404 | 64 | 320 | 2.0 | 10.0 | 0.00 | 0.20 | 0.16 | 38 | 1006.0 |
| 20260507192405 | 65 | 336 | 2.0 | 14.0 | 0.00 | 0.20 | 0.16 | 38 | 1006.4 |
| 20260507191904 | 64 | 333 | 2.0 | 8.0 | 0.00 | 0.20 | 0.16 | 38 | 1006.3 |
| 20260507191404 | 65 | 326 | 2.0 | 10.0 | 0.00 | 0.20 | 0.16 | 43 | 1006.5 |
| 20260507190904 | 64 | 292 | 4.0 | 12.0 | 0.00 | 0.20 | 0.16 | 40 | 1006.6 |
| 20260507190404 | 63 | 31 | 2.0 | 12.0 | 0.00 | 0.20 | 0.16 | 37 | 1006.7 |
| 20260507185904 | 64 | 330 | 2.0 | 16.0 | 0.00 | 0.20 | 0.16 | 42 | 1006.6 |
| 20260507185404 | 64 | 264 | 5.0 | 9.0 | 0.00 | 0.20 | 0.16 | 35 | 1006.7 |
| 20260507184904 | 64 | 354 | 5.0 | 14.0 | 0.00 | 0.21 | 0.16 | 41 | 1006.7 |
| 20260507183904 | 63 | 296 | 6.0 | 13.0 | 0.00 | 0.21 | 0.16 | 38 | 1006.8 |
| 20260507182904 | 64 | 265 | 4.0 | 17.0 | 0.00 | 0.21 | 0.16 | 37 | 1007.0 |
| 20260507182404 | 65 | 340 | 2.0 | 15.0 | 0.00 | 0.21 | 0.16 | 44 | 1007.0 |
| 20260507181404 | 62 | 53 | 0.0 | 5.0 | 0.00 | 0.21 | 0.16 | 40 | 1007.1 |
| 20260507180904 | 63 | 6 | 2.0 | 9.0 | 0.00 | 0.21 | 0.16 | 39 | 1007.3 |
| 20260507180404 | 62 | 296 | 5.0 | 15.0 | 0.00 | 0.21 | 0.16 | 37 | 1007.3 |
| 20260507175905 | 63 | 301 | 2.0 | 9.0 | 0.00 | 0.21 | 0.16 | 40 | 1007.4 |
| 20260507175404 | 63 | 324 | 3.0 | 12.0 | 0.00 | 0.21 | 0.16 | 36 | 1007.5 |
| 20260507174904 | 63 | 322 | 6.0 | 18.0 | 0.00 | 0.21 | 0.16 | 38 | 1007.5 |
| 20260507174404 | 63 | 295 | 5.0 | 12.0 | 0.00 | 0.21 | 0.16 | 43 | 1007.4 |
| 20260507173904 | 62 | 71 | 2.0 | 13.0 | 0.00 | 0.21 | 0.16 | 36 | 1007.6 |
| 20260507172904 | 62 | 291 | 4.0 | 10.0 | 0.00 | 0.22 | 0.16 | 42 | 1007.8 |
| 20260507171905 | 63 | 303 | 2.0 | 10.0 | 0.00 | 0.23 | 0.16 | 42 | 1008.0 |
| 20260507171405 | 62 | 325 | 6.0 | 15.0 | 0.00 | 0.23 | 0.16 | 41 | 1007.9 |
| 20260507170905 | 62 | 316 | 7.0 | 15.0 | 0.00 | 0.23 | 0.16 | 39 | 1008.0 |
| 20260507170405 | 61 | 301 | 5.0 | 15.0 | 0.00 | 0.23 | 0.16 | 38 | 1008.1 |
| 20260507165904 | 62 | 325 | 6.0 | 12.0 | 0.00 | 0.23 | 0.16 | 38 | 1008.2 |
| 20260507165405 | 62 | 303 | 7.0 | 18.0 | 0.00 | 0.23 | 0.16 | 42 | 1008.1 |
| 20260507164905 | 62 | 257 | 1.0 | 12.0 | 0.00 | 0.24 | 0.16 | 42 | 1008.1 |
| 20260507164404 | 60 | 240 | 0.0 | 8.0 | 0.00 | 0.24 | 0.16 | 37 | 1008.3 |
| 20260507163904 | 60 | 310 | 4.0 | 13.0 | 0.00 | 0.24 | 0.16 | 39 | 1008.3 |
| 20260507163405 | 61 | 293 | 6.0 | 15.0 | 0.00 | 0.24 | 0.16 | 39 | 1008.4 |
| 20260507162904 | 61 | 294 | 7.0 | 12.0 | 0.00 | 0.25 | 0.16 | 37 | 1008.6 |
| 20260507162404 | 61 | 293 | 4.0 | 13.0 | 0.00 | 0.25 | 0.16 | 39 | 1008.6 |
| 20260507161905 | 61 | 312 | 5.0 | 12.0 | 0.00 | 0.25 | 0.16 | 42 | 1008.7 |
| 20260507161405 | 60 | 302 | 4.0 | 12.0 | 0.00 | 0.25 | 0.16 | 41 | 1008.7 |
| 20260507160906 | 60 | 351 | 2.0 | 7.0 | 0.00 | 0.25 | 0.16 | 38 | 1008.8 |
| 20260507160405 | 60 | 334 | 2.0 | 10.0 | 0.00 | 0.25 | 0.16 | 41 | 1008.9 |
| 20260507155406 | 61 | 354 | 1.0 | 3.0 | 0.00 | 0.25 | 0.16 | 39 | 1008.8 |
| 20260507154905 | 60 | 309 | 1.0 | 12.0 | 0.00 | 0.25 | 0.16 | 41 | 1008.8 |
| 20260507154405 | 60 | 338 | 4.0 | 10.0 | 0.00 | 0.25 | 0.16 | 42 | 1008.9 |
| 20260507152905 | 60 | 334 | 3.0 | 10.0 | 0.00 | 0.25 | 0.16 | 40 | 1009.1 |
| 20260507152405 | 59 | 286 | 2.0 | 10.0 | 0.00 | 0.25 | 0.16 | 42 | 1009.2 |
| 20260507151905 | 59 | 313 | 3.0 | 10.0 | 0.00 | 0.25 | 0.16 | 40 | 1009.3 |
| 20260507151405 | 59 | 314 | 3.0 | 10.0 | 0.00 | 0.25 | 0.16 | 45 | 1009.3 |
| 20260507150905 | 58 | 294 | 7.0 | 15.0 | 0.00 | 0.25 | 0.16 | 41 | 1009.3 |
| 20260507150405 | 58 | 303 | 8.0 | 17.0 | 0.00 | 0.25 | 0.16 | 40 | 1009.4 |
| 20260507145906 | 57 | 0 | 2.0 | 14.0 | 0.00 | 0.25 | 0.16 | 44 | 1009.4 |
| 20260507145405 | 57 | 323 | 3.0 | 14.0 | 0.00 | 0.25 | 0.16 | 43 | 1009.3 |
| 20260507144905 | 57 | 305 | 9.0 | 16.0 | 0.00 | 0.25 | 0.16 | 41 | 1009.5 |
| 20260507143905 | 57 | 320 | 4.0 | 14.0 | 0.00 | 0.25 | 0.16 | 44 | 1009.3 |
| 20260507143404 | 56 | 324 | 7.0 | 14.0 | 0.00 | 0.25 | 0.16 | 43 | 1009.3 |
| 20260507142904 | 56 | 322 | 7.0 | 12.0 | 0.00 | 0.25 | 0.16 | 47 | 1009.3 |
| 20260507142403 | 56 | 317 | 3.0 | 10.0 | 0.00 | 0.25 | 0.16 | 48 | 1009.3 |
| 20260507141404 | 56 | 318 | 3.0 | 12.0 | 0.00 | 0.25 | 0.16 | 49 | 1009.3 |
| 20260507140904 | 55 | 298 | 6.0 | 15.0 | 0.00 | 0.25 | 0.16 | 48 | 1009.4 |
| 20260507140404 | 55 | 292 | 7.0 | 14.0 | 0.00 | 0.25 | 0.16 | 50 | 1009.3 |
| 20260507135903 | 55 | 286 | 2.0 | 12.0 | 0.00 | 0.25 | 0.16 | 53 | 1009.4 |
| 20260507134905 | 54 | 320 | 5.0 | 12.0 | 0.00 | 0.25 | 0.16 | 56 | 1009.3 |
| 20260507133904 | 53 | 329 | 3.0 | 12.0 | 0.00 | 0.25 | 0.16 | 63 | 1009.4 |
| 20260507133404 | 53 | 314 | 0.0 | 7.0 | 0.00 | 0.25 | 0.16 | 64 | 1009.5 |
| 20260507132905 | 53 | 334 | 2.0 | 10.0 | 0.00 | 0.25 | 0.16 | 65 | 1009.5 |
| 20260507132403 | 53 | 324 | 6.0 | 12.0 | 0.00 | 0.25 | 0.16 | 65 | 1009.6 |
| 20260507131906 | 53 | 336 | 0.0 | 1.0 | 0.00 | 0.25 | 0.16 | 65 | 1009.5 |
| 20260507131404 | 53 | 304 | 2.0 | 8.0 | 0.00 | 0.25 | 0.16 | 71 | 1009.5 |
| 20260507130904 | 52 | 317 | 3.0 | 9.0 | 0.00 | 0.25 | 0.16 | 73 | 1009.3 |
| 20260507125903 | 52 | 318 | 0.0 | 6.0 | 0.00 | 0.25 | 0.16 | 76 | 1009.4 |
| 20260507125404 | 51 | 286 | 1.0 | 10.0 | 0.00 | 0.25 | 0.16 | 75 | 1009.3 |
| 20260507124904 | 51 | 323 | 2.0 | 10.0 | 0.00 | 0.25 | 0.16 | 76 | 1009.4 |
| 20260507124404 | 51 | 322 | 4.0 | 9.0 | 0.00 | 0.25 | 0.16 | 77 | 1009.5 |
| 20260507123904 | 51 | 324 | 6.0 | 12.0 | 0.00 | 0.25 | 0.16 | 78 | 1009.7 |
| 20260507123404 | 51 | 327 | 1.0 | 7.0 | 0.00 | 0.25 | 0.16 | 80 | 1009.5 |
| 20260507122904 | 51 | 310 | 4.0 | 9.0 | 0.00 | 0.25 | 0.16 | 81 | 1009.5 |
| 20260507122404 | 50 | 302 | 3.0 | 12.0 | 0.00 | 0.25 | 0.16 | 82 | 1009.5 |
| 20260507121905 | 50 | 320 | 7.0 | 12.0 | 0.00 | 0.25 | 0.16 | 83 | 1009.5 |
| 20260507121405 | 49 | 309 | 2.0 | 8.0 | 0.00 | 0.25 | 0.16 | 83 | 1009.4 |
| 20260507120404 | 49 | 314 | 6.0 | 12.0 | 0.00 | 0.25 | 0.16 | 84 | 1009.3 |
| 20260507115905 | 49 | 321 | 6.0 | 13.0 | 0.00 | 0.25 | 0.16 | 84 | 1009.3 |
| 20260507114905 | 49 | 323 | 1.0 | 12.0 | 0.00 | 0.25 | 0.16 | 85 | 1009.3 |
| 20260507114404 | 49 | 278 | 2.0 | 10.0 | 0.00 | 0.25 | 0.16 | 85 | 1009.2 |
| 20260507113904 | 49 | 295 | 5.0 | 10.0 | 0.00 | 0.25 | 0.16 | 85 | 1009.2 |
| 20260507112905 | 48 | 306 | 4.0 | 9.0 | 0.00 | 0.25 | 0.16 | 86 | 1009.0 |
| 20260507112404 | 48 | 312 | 1.0 | 10.0 | 0.00 | 0.25 | 0.16 | 86 | 1009.0 |
| 20260507111905 | 48 | 298 | 3.0 | 8.0 | 0.00 | 0.25 | 0.16 | 86 | 1009.0 |
| 20260507110904 | 48 | 273 | 1.0 | 5.0 | 0.00 | 0.25 | 0.16 | 87 | 1008.7 |
| 20260507110406 | 48 | 311 | 0.0 | 0.0 | 0.00 | 0.25 | 0.16 | 87 | 1008.7 |
| 20260507105905 | 48 | 285 | 0.0 | 0.0 | 0.00 | 0.25 | 0.16 | 87 | 1008.7 |
| 20260507105404 | 48 | 285 | 0.0 | 0.0 | 0.00 | 0.25 | 0.16 | 87 | 1008.7 |
| 20260507104904 | 48 | 299 | 0.0 | 0.0 | 0.00 | 0.25 | 0.16 | 87 | 1008.7 |
| 20260507104405 | 48 | 313 | 0.0 | 8.0 | 0.00 | 0.25 | 0.16 | 87 | 1008.8 |
| 20260507103904 | 48 | 286 | 1.0 | 8.0 | 0.00 | 0.25 | 0.16 | 87 | 1008.5 |
| 20260507102904 | 48 | 298 | 5.0 | 9.0 | 0.00 | 0.25 | 0.16 | 88 | 1008.4 |